Location: Grange Rosano
(44.4500°N, 6.9667°E)
Time: 21:19:17
(UTC+00:00)

Cosmos 1943 Rocket - Pass Details

Date: 26 May 2022
Orbit: 810 x 845 km, 71.0° (Epoch: 01 July)

Event Time Altitude Azimuth Distance (km) Brightness Sun altitude
Rises 03:10:42 0° 315° (NW) 3,412 5.3 -7.2°
Reaches altitude 10° 03:14:38 10° 289° (WNW) 2,470 4.3 -6.7°
Maximum altitude 03:16:58 13° 264° (W) 2,279 3.9 -6.4°
Drops below altitude 10° 03:19:17 10° 239° (WSW) 2,461 4.0 -6.0°
Enters shadow 03:20:44 - 227° (SW) 2,735 4.2 -5.8°
